SL-12 R/B(2), 25927

Orbit data source: Space-Track

SL-12 R/B(2), 25927 is space debris in HEO originally from a launch on Sun, 26 Sep 1999 UTC launched from the Tyuratam Missile And Space Complex (TTMTR). Debris objects in space refer to the collection of defunct objects orbiting the Earth. Examples of debris include non-operational satellites, rocket bodies, and fragments generated from explosions, collisions, or faulty payload assembly.

Loading next visibility...
Identifier
25927, 1999-053D
Orbit
HEO
Country
Flag of CISCIS
Related business
Manufacturer
RKKE
Mission
Spacecraft
Bus & Motor
BLOK DM2, Unknown motor
Mass
2,560 kg wet, 2,560 kg dry
Launch date (UTC)
1999-09-26 (26 years ago)
Launch vehicle
Unknown
Launch site
Tyuratam Missile And Space Complex (TTMTR)
Object type
Payload
Rocket body
Debris
Shape & HBR
Cyl + 1 Nozzle, 3.1 m
Radar Cross Section
23.684 m², Large (>1 m²)

Expand to show TLE details & history
Last TLE update: 2 days ago

TLE from 2 days ago
0 SL-12 R/B(2)
1 25927U 99053D   25346.66023962 -.00000215  00000-0  00000-0 0  9994
2 25927  17.7737 333.6526 5326417 243.9258 258.9332  1.89350685180891
Epoch: 2025-12-12T15:50Z
TLE epoch observation values (Epoch: 2025-12-12T15:50:44.703Z)
Latitude
17.70784°
Longitude
110.12868°
Altitude
29,852.236 km
Speed
2.75 km/s
True Right ascension
04h 37m 39s
True Declination
17° 41' 18"
Sunlit
Object was in daylight at epoch
Visualization orbit readout
Latitude
Unknown
Longitude
Unknown
Altitude
Unknown
Speed
Unknown
Apparent Right ascension
Unknown
Apparent Declination
Unknown
Sunlit
N/A
Visualization observer readout
Local Sidereal Time
16:34:41
Azimuth
Unknown
Elevation
Unknown
Doppler factor
Unknown
Orbital elements
Apogee altitude
35,924.469 km
Perigee altitude
6,521.469 km
Semi-major axis
27,601.106 km
Eccentricity
0.53264
Inclination
17.7737°
RAAN
333.6526°
Arg. of periapsis
243.9258°
True anomaly
211.54918°
Mean anomaly
258.9332°
Eccentric anomaly
234.18556°
Mean motion
0.47332 °/min
Orbital period
760.59 mins
BSTAR
0
Loading maneuver chart data...
Computing Atmospheric mass density...
Loading historical data...
Loading historical data...
Loading historical data...
Loading historical data...
Loading historical data...
Loading historical data...
Loading historical data...
Other satellites on launch #53 in the year 1999 (1999-09-26 UTC)

Documentation

Showing up to 5 results
|